Погода в Ермолаево

Россия / Удмуртская Республика     56°08′25″N   53°15′51″E
темп.,
°C
ветер,
м/с
пор.,
м/с
влажн.,
%
обл.,
%
осадки,
мм/ч
давл.,
гПа
погр.,
м
8 декабря, ср
ср801:00−12юв51084100 0.0 1037258
04:00−11юв51286100 0.1 1036308
07:00−10юв61384100 0.3 1034331
10:00−8ююв61479100 0.3 1032388
13:00−6ююв71695100 1.7 1030481
16:00−5ю71595100 5.3 1030473
19:00−3ю61491100 0.5 1030430
22:00−2ю61291100 0.6 1029377
9 декабря, чт
чт901:00−4ю51291100 0.0 1030314
04:00−5ююв41192100 0.0 1030236
07:00−5ююв41091100 0.0 1029242
10:00−4ююв41090100 0.0 1029259
13:00−3ююв41088100 0.0 1028319
16:00−4ююв51185100 0.0 1026313
19:00−4ююв41088100 0.0 1026304
22:00−4ю4990100 0.0 1025284
10 декабря, пт
пт1001:00−4ю3691100 0.0 1025170
04:00−7ю2295100 0.0 102517
07:00−8з1196100 0.0 102510
10:00−9ссз249899 0.0 102669
13:00−8с499410 0.0 1027242
16:00−10с511905 0.0 1029232
19:00−13ссв511905 0.0 1032225
22:00−15ссв411935 0.0 1033214
11 декабря, сб
сб1101:00−16ссв512915 0.0 1034225
04:00−18с39955 0.0 1036181
07:00−18с310945 0.0 1037179
10:00−16с39935 0.0 1038160
13:00−12ссз28915 0.0 1038194
16:00−15сз229626 0.0 103913
19:00−15ссз369589 0.0 103988
22:00−16ссз239641 0.0 104041
12 декабря, вс
вс1201:00−17сз119632 0.0 10429
04:00−18сз22975 0.0 104312
07:00−18ссз22975 0.0 104418
10:00−18сз22955 0.0 104530
13:00−12сз12875 0.0 104466
16:00−15зсз11935 0.0 10459
19:00−17з11955 0.0 10459
22:00−18юз119625 0.0 10459